DW2659 Weather Reports


time (UTC)temp
C
wind
direction
speed
KPH
gust
KPH
rain 1hr
cm
rain 24hr
cm
rain mn
cm
humidity
%
barometer
mb
20260509192404 22 182 1.6 8.0 0.00 0.00 0.00 63 1010.8
20260509191904 22 133 4.8 11.3 0.00 0.00 0.00 62 1010.8
20260509190905 22 253 4.8 12.9 0.00 0.00 0.00 61 1010.9
20260509190404 22 131 4.8 9.7 0.00 0.00 0.00 60 1010.9
20260509185404 22 113 1.6 4.8 0.00 0.00 0.00 59 1011.1
20260509184904 22 232 3.2 8.0 0.00 0.00 0.00 60 1011.1
20260509184403 22 215 3.2 8.0 0.00 0.00 0.00 59 1011.2
20260509183905 22 237 3.2 8.0 0.00 0.00 0.00 60 1011.2
20260509183404 22 233 3.2 8.0 0.00 0.00 0.00 57 1011.2
20260509182903 22 95 1.6 4.8 0.00 0.00 0.00 57 1011.2
20260509182404 22 187 3.2 4.8 0.00 0.00 0.00 59 1011.2
20260509181404 22 221 3.2 9.7 0.00 0.00 0.00 58 1011.2
20260509180404 22 136 3.2 9.7 0.00 0.00 0.00 60 1010.7
20260509175904 22 142 4.8 8.0 0.00 0.00 0.00 62 1010.7
20260509175405 22 243 4.8 11.3 0.00 0.00 0.00 56 1010.7
20260509174904 22 348 3.2 9.7 0.00 0.00 0.00 56 1010.7
20260509173403 22 130 6.4 9.7 0.00 0.00 0.00 58 1010.9
20260509172405 23 90 3.2 4.8 0.00 0.00 0.00 54 1011.4
20260509171903 23 65 1.6 3.2 0.00 0.00 0.00 53 1011.4
20260509171404 22 335 1.6 4.8 0.00 0.00 0.00 58 1011.5
20260509170403 22 231 3.2 11.3 0.00 0.00 0.00 56 1011.5
20260509165904 22 100 4.8 9.7 0.00 0.00 0.00 59 1011.8
20260509164904 22 127 3.2 8.0 0.00 0.00 0.00 60 1011.8
20260509164403 22 148 4.8 9.7 0.00 0.00 0.00 59 1012.0
20260509163905 22 178 6.4 12.9 0.00 0.00 0.00 60 1012.0
20260509162903 21 180 3.2 4.8 0.00 0.00 0.00 64 1011.9
20260509162404 21 248 3.2 4.8 0.00 0.00 0.00 63 1011.9
20260509161905 20 104 4.8 8.0 0.00 0.00 0.00 64 1011.8
20260509161404 20 188 3.2 11.3 0.00 0.00 0.00 65 1011.9
20260509160904 20 166 8.0 11.3 0.00 0.00 0.00 66 1011.9
20260509160405 20 212 4.8 14.5 0.00 0.00 0.00 67 1012.2
20260509155904 20 253 3.2 11.3 0.00 0.00 0.00 66 1012.2
20260509155404 19 115 4.8 9.7 0.00 0.00 0.00 69 1012.2
20260509154905 19 201 3.2 4.8 0.00 0.00 0.00 68 1012.2
20260509154404 19 315 1.6 4.8 0.00 0.00 0.00 67 1012.5
20260509153904 19 229 3.2 8.0 0.00 0.00 0.00 69 1012.5
20260509153404 18 235 1.6 8.0 0.00 0.00 0.00 69 1012.5
20260509152905 18 246 4.8 9.7 0.00 0.00 0.00 68 1012.5
20260509152404 18 223 4.8 12.9 0.00 0.00 0.00 69 1012.5
20260509151903 18 200 4.8 9.7 0.00 0.00 0.00 70 1012.5
20260509151404 18 145 4.8 9.7 0.00 0.00 0.00 71 1012.5
20260509150905 18 179 6.4 9.7 0.00 0.00 0.00 71 1012.5
20260509145405 18 213 3.2 9.7 0.00 0.00 0.00 71 1012.4
20260509144404 18 242 3.2 4.8 0.00 0.00 0.00 74 1012.3
20260509143905 18 247 4.8 9.7 0.00 0.00 0.00 74 1012.3
20260509143404 17 177 4.8 9.7 0.00 0.00 0.00 75 1012.1
20260509142904 17 178 3.2 8.0 0.00 0.00 0.00 76 1012.1
20260509141404 17 173 3.2 8.0 0.00 0.00 0.00 76 1011.3
20260509140906 17 217 4.8 8.0 0.00 0.00 0.00 76 1011.3
20260509140404 17 244 1.6 4.8 0.00 0.00 0.00 76 1011.3
20260509135905 16 173 1.6 3.2 0.00 0.00 0.00 77 1011.3
20260509134904 16 102 3.2 8.0 0.00 0.00 0.00 78 1011.3
20260509133905 16 148 3.2 4.8 0.00 0.00 0.00 79 1011.6
20260509133404 15 143 1.6 4.8 0.00 0.00 0.00 80 1011.5
20260509132904 15 206 0.0 3.2 0.00 0.00 0.00 80 1011.6
20260509132405 15 236 1.6 4.8 0.00 0.00 0.00 80 1011.6
20260509131904 15 233 1.6 4.8 0.00 0.00 0.00 80 1011.6
20260509131404 15 195 1.6 4.8 0.00 0.00 0.00 81 1011.8
20260509130404 15 234 0.0 3.2 0.00 0.00 0.00 82 1011.8
20260509125904 15 218 1.6 3.2 0.00 0.00 0.00 82 1011.7
20260509125409 14 175 0.0 3.2 0.00 0.00 0.00 83 1012.0
20260509124903 14 175 1.6 3.2 0.00 0.00 0.00 83 1012.0
20260509123904 14 175 0.0 0.0 0.00 0.00 0.00 84 1012.0
20260509123402 14 175 1.6 3.2 0.00 0.00 0.00 84 1011.9
20260509122903 14 175 1.6 3.2 0.00 0.00 0.00 85 1011.5
20260509121903 13 249 0.0 1.6 0.00 0.00 0.00 86 1011.5
20260509121402 13 249 0.0 1.6 0.00 0.00 0.00 87 1011.5
20260509120903 13 249 0.0 0.0 0.00 0.00 0.00 87 1011.5
20260509120402 13 249 0.0 0.0 0.00 0.00 0.00 87 1011.5
20260509115903 13 249 0.0 0.0 0.00 0.00 0.00 87 1011.3
20260509115404 13 249 0.0 0.0 0.00 0.00 0.00 87 1011.3
20260509114902 13 249 0.0 0.0 0.00 0.00 0.00 87 1011.3
20260509114402 13 249 0.0 0.0 0.00 0.00 0.00 87 1011.5
20260509113903 13 249 0.0 0.0 0.00 0.00 0.00 86 1011.5
20260509113404 13 249 0.0 0.0 0.00 0.00 0.00 86 1011.5
20260509112903 13 249 0.0 0.0 0.00 0.00 0.00 86 1011.5
20260509112403 13 249 0.0 0.0 0.00 0.00 0.00 86 1011.2
20260509111903 13 249 0.0 0.0 0.00 0.00 0.00 86 1011.2
20260509111403 13 249 0.0 0.0 0.00 0.00 0.00 86 1011.2
20260509110902 13 249 0.0 0.0 0.00 0.00 0.00 86 1011.2
20260509110404 13 249 0.0 0.0 0.00 0.00 0.00 86 1011.2
20260509105403 12 249 0.0 1.6 0.00 0.00 0.00 86 1011.2
20260509104902 12 249 0.0 1.6 0.00 0.00 0.00 87 1011.2
20260509104404 12 249 0.0 0.0 0.00 0.00 0.00 87 1011.4
20260509103902 12 249 0.0 1.6 0.00 0.00 0.00 87 1011.4
20260509102904 12 249 0.0 0.0 0.00 0.00 0.00 87 1011.2
20260509102403 12 249 0.0 1.6 0.00 0.00 0.00 87 1011.2
20260509101903 12 249 0.0 1.6 0.00 0.00 0.00 87 1011.2
20260509101403 12 249 0.0 3.2 0.00 0.00 0.00 86 1011.2
20260509100903 12 249 0.0 1.6 0.00 0.00 0.00 86 1011.2
20260509100403 12 249 0.0 0.0 0.00 0.00 0.00 86 1011.2
20260509095904 12 249 0.0 0.0 0.00 0.00 0.00 86 1011.2
20260509095403 12 249 0.0 0.0 0.00 0.00 0.00 86 1011.2
20260509094903 12 249 0.0 0.0 0.00 0.00 0.00 86 1011.3
20260509094403 12 249 0.0 0.0 0.00 0.00 0.00 87 1011.3
20260509093903 12 249 0.0 0.0 0.00 0.00 0.00 87 1011.3
20260509093402 12 249 0.0 1.6 0.00 0.00 0.00 87 1011.3
20260509092903 12 249 0.0 1.6 0.00 0.00 0.00 87 1011.4
20260509092404 12 249 0.0 0.0 0.00 0.00 0.00 87 1011.7
20260509091903 12 249 0.0 1.6 0.00 0.00 0.00 87 1011.7
20260509091402 12 249 0.0 0.0 0.00 0.00 0.00 87 1011.7
20260509090903 12 249 0.0 0.0 0.00 0.00 0.00 87 1011.7
20260509090404 12 249 0.0 0.0 0.00 0.00 0.00 87 1011.7
20260509085902 12 249 0.0 1.6 0.00 0.00 0.00 87 1011.6
20260509085402 12 249 0.0 3.2 0.00 0.00 0.00 87 1011.6
20260509084903 12 249 0.0 0.0 0.00 0.00 0.00 87 1011.6
20260509084404 12 249 0.0 0.0 0.00 0.00 0.00 87 1011.7
20260509083403 12 249 0.0 0.0 0.00 0.00 0.00 87 1011.7
20260509082404 12 249 0.0 0.0 0.00 0.00 0.00 87 1011.2
20260509081903 11 249 0.0 0.0 0.00 0.00 0.00 87 1011.2
20260509081402 11 249 0.0 0.0 0.00 0.00 0.00 87 1011.3
20260509080904 11 249 0.0 0.0 0.00 0.00 0.00 87 1011.3
20260509080403 11 249 0.0 0.0 0.00 0.00 0.00 87 1011.3
20260509075902 11 249 0.0 0.0 0.00 0.00 0.00 86 1011.2
20260509075403 11 249 0.0 0.0 0.00 0.00 0.00 87 1011.2
20260509074903 11 249 0.0 0.0 0.00 0.00 0.00 87 1011.2
20260509073903 11 249 0.0 1.6 0.00 0.00 0.00 87 1011.1
20260509073404 11 249 0.0 1.6 0.00 0.00 0.00 87 1011.1
20260509072903 11 249 0.0 0.0 0.00 0.00 0.00 87 1011.4
20260509072402 11 249 0.0 0.0 0.00 0.00 0.00 86 1011.4
20260509071904 11 249 0.0 0.0 0.00 0.00 0.00 86 1011.4
20260509070903 11 249 0.0 0.0 0.00 0.00 0.00 86 1011.4
20260509065903 11 249 0.0 0.0 0.00 0.00 0.00 85 1011.8
20260509064402 11 249 0.0 0.0 0.00 0.00 0.00 86 1011.8
20260509063903 11 249 0.0 1.6 0.00 0.00 0.00 86 1011.8
20260509063403 11 249 0.0 1.6 0.00 0.00 0.00 86 1011.8
20260509062904 10 249 0.0 0.0 0.00 0.00 0.00 85 1011.9
20260509062403 10 249 0.0 0.0 0.00 0.00 0.00 85 1012.4
20260509061903 10 249 0.0 0.0 0.00 0.00 0.00 85 1012.4
20260509061404 10 249 0.0 0.0 0.00 0.00 0.00 85 1012.4
20260509060903 10 249 0.0 0.0 0.00 0.00 0.00 85 1012.4
20260509060403 11 249 0.0 0.0 0.00 0.00 0.00 85 1012.4
20260509055904 10 249 0.0 0.0 0.00 0.00 0.00 85 1012.4
20260509055402 10 249 0.0 0.0 0.00 0.00 0.00 84 1012.4
20260509054903 10 249 0.0 0.0 0.00 0.00 0.00 84 1012.4
20260509054404 10 249 0.0 0.0 0.00 0.00 0.00 84 1012.5
20260509053903 11 249 0.0 0.0 0.00 0.00 0.00 84 1012.5
20260509053402 11 249 0.0 0.0 0.00 0.00 0.00 84 1012.5
20260509052904 11 249 0.0 1.6 0.00 0.00 0.00 83 1012.6
20260509051903 11 249 0.0 0.0 0.00 0.00 0.00 83 1012.6
20260509051404 11 249 0.0 0.0 0.00 0.00 0.00 83 1012.5
20260509050903 11 249 0.0 0.0 0.00 0.00 0.00 83 1012.5
20260509050403 11 249 0.0 0.0 0.00 0.00 0.00 83 1012.5
20260509045904 11 249 0.0 0.0 0.00 0.00 0.00 82 1012.8
20260509045403 11 249 0.0 0.0 0.00 0.00 0.00 82 1012.8
20260509044904 11 249 0.0 0.0 0.00 0.00 0.00 82 1012.8
20260509044403 11 249 0.0 0.0 0.00 0.00 0.00 82 1012.8
20260509043905 11 249 0.0 0.0 0.00 0.00 0.00 81 1012.8
20260509043403 11 249 0.0 0.0 0.00 0.00 0.00 81 1012.8
20260509042903 11 249 0.0 0.0 0.00 0.00 0.00 81 1012.8
20260509042404 11 249 0.0 0.0 0.00 0.00 0.00 80 1012.8
20260509041403 11 249 0.0 1.6 0.00 0.00 0.00 80 1012.7
20260509040904 12 249 0.0 0.0 0.00 0.00 0.00 79 1012.7
20260509040403 12 249 0.0 0.0 0.00 0.00 0.00 79 1012.8
20260509035903 12 249 0.0 0.0 0.00 0.00 0.00 79 1012.8
20260509035404 12 249 0.0 0.0 0.00 0.00 0.00 79 1012.8
20260509034903 12 249 0.0 0.0 0.00 0.00 0.00 78 1012.8
20260509033904 12 249 0.0 0.0 0.00 0.00 0.00 78 1012.9
20260509032404 12 249 0.0 0.0 0.00 0.00 0.00 77 1013.3
20260509031903 12 249 0.0 1.6 0.00 0.00 0.00 77 1013.3
20260509031403 12 249 0.0 0.0 0.00 0.00 0.00 77 1013.3
20260509030903 12 249 0.0 1.6 0.00 0.00 0.00 77 1013.3
20260509025904 13 249 0.0 0.0 0.00 0.00 0.00 75 1013.4
20260509025404 13 249 0.0 0.0 0.00 0.00 0.00 75 1013.4
20260509024904 13 249 0.0 0.0 0.00 0.00 0.00 75 1013.4
20260509024403 13 249 0.0 0.0 0.00 0.00 0.00 75 1013.1
20260509023903 13 249 0.0 0.0 0.00 0.00 0.00 74 1013.1
20260509023404 13 249 0.0 0.0 0.00 0.00 0.00 73 1013.1
20260509022404 13 249 0.0 0.0 0.00 0.00 0.00 72 1013.1
20260509021904 13 249 0.0 0.0 0.00 0.00 0.00 72 1013.1
20260509021403 13 249 0.0 0.0 0.00 0.00 0.00 72 1013.0
20260509020903 13 249 0.0 0.0 0.00 0.00 0.00 71 1013.0
20260509020404 14 249 0.0 0.0 0.00 0.00 0.00 70 1013.0
20260509015903 14 249 0.0 0.0 0.00 0.00 0.00 70 1012.7
20260509014904 14 249 0.0 0.0 0.00 0.00 0.00 69 1012.7
20260509014403 15 249 0.0 0.0 0.00 0.00 0.00 70 1012.7
20260509013903 15 249 0.0 0.0 0.00 0.00 0.00 70 1012.7
20260509013404 15 249 0.0 0.0 0.00 0.00 0.00 69 1012.7
20260509012903 15 249 0.0 0.0 0.00 0.00 0.00 68 1012.9
20260509011904 15 249 0.0 0.0 0.00 0.00 0.00 67 1012.9
20260509011403 16 249 0.0 0.0 0.00 0.00 0.00 67 1012.9
20260509010903 16 249 0.0 0.0 0.00 0.00 0.00 67 1012.9
20260509010403 16 249 0.0 0.0 0.00 0.00 0.00 66 1012.9
20260509005904 16 249 0.0 0.0 0.00 0.00 0.00 64 1012.9
20260509004903 16 249 0.0 0.0 0.00 0.00 0.00 67 1012.8
20260509003903 17 249 0.0 0.0 0.00 0.00 0.00 64 1012.8
20260509003403 17 249 0.0 0.0 0.00 0.00 0.00 64 1012.8
20260509002904 17 249 0.0 0.0 0.00 0.00 0.00 64 1012.9
20260509002403 17 249 0.0 0.0 0.00 0.00 0.00 63 1012.9
20260509001904 17 249 0.0 0.0 0.00 0.00 0.00 64 1012.9
20260509001403 18 249 0.0 1.6 0.00 0.00 0.00 61 1012.9
20260509000904 18 249 0.0 1.6 0.00 0.00 0.00 59 1012.9
20260509000404 18 249 0.0 3.2 0.00 0.00 0.00 60 1012.9
20260508235903 18 249 0.0 0.0 0.00 0.00 0.00 61 1012.8
20260508235403 18 249 0.0 0.0 0.00 0.00 0.00 60 1012.8
20260508234905 18 249 0.0 0.0 0.00 0.00 0.00 59 1012.8
20260508233904 18 249 1.6 3.2 0.00 0.00 0.00 55 1012.7
20260508233404 18 257 0.0 1.6 0.00 0.00 0.00 55 1012.7
20260508232903 19 257 0.0 3.2 0.00 0.00 0.00 57 1012.8
20260508232404 19 263 1.6 4.8 0.00 0.00 0.00 55 1012.8
20260508231904 19 250 0.0 3.2 0.00 0.00 0.00 54 1012.8
20260508231403 19 243 1.6 4.8 0.00 0.00 0.00 53 1012.8
20260508230903 19 236 1.6 4.8 0.00 0.00 0.00 53 1012.8
20260508230405 19 208 0.0 3.2 0.00 0.00 0.00 53 1012.8
20260508225904 19 205 3.2 4.8 0.00 0.00 0.00 52 1012.9
20260508224905 20 248 1.6 4.8 0.00 0.00 0.00 51 1012.9
20260508224403 20 243 1.6 3.2 0.00 0.00 0.00 51 1013.1
20260508223903 20 251 0.0 1.6 0.00 0.00 0.00 50 1013.1
20260508223404 20 251 1.6 4.8 0.00 0.00 0.00 47 1013.1
20260508222404 20 251 1.6 4.8 0.00 0.00 0.00 46 1013.3
20260508221404 20 249 3.2 8.0 0.00 0.00 0.00 44 1012.6
20260508220903 20 260 3.2 4.8 0.00 0.00 0.00 44 1012.6
20260508220404 20 224 3.2 4.8 0.00 0.00 0.00 43 1012.6
20260508215903 20 230 3.2 4.8 0.00 0.00 0.00 41 1012.6
20260508215403 21 241 3.2 8.0 0.00 0.00 0.00 41 1012.6
20260508214904 21 265 1.6 3.2 0.00 0.00 0.00 41 1012.6
20260508214403 21 263 3.2 11.3 0.00 0.00 0.00 40 1012.6
20260508213904 21 260 3.2 9.7 0.00 0.00 0.00 41 1012.6
20260508213405 21 256 4.8 9.7 0.00 0.00 0.00 39 1012.6
20260508212903 21 223 4.8 9.7 0.00 0.00 0.00 38 1012.6
20260508212403 21 264 3.2 8.0 0.00 0.00 0.00 36 1013.0
20260508211404 21 214 1.6 4.8 0.00 0.00 0.00 35 1013.0
20260508210904 21 252 3.2 8.0 0.00 0.00 0.00 34 1013.0
20260508205905 21 202 3.2 9.7 0.00 0.00 0.00 33 1013.1
20260508205403 21 223 3.2 9.7 0.00 0.00 0.00 29 1013.1
20260508204903 21 159 3.2 8.0 0.00 0.00 0.00 31 1013.1
20260508204405 22 168 3.2 11.3 0.00 0.00 0.00 33 1013.1
20260508203904 22 117 4.8 11.3 0.00 0.00 0.00 32 1013.1
20260508203404 21 226 4.8 9.7 0.00 0.00 0.00 32 1013.1
20260508202905 21 207 4.8 8.0 0.00 0.00 0.00 32 1013.1
20260508202403 21 270 4.8 9.7 0.00 0.00 0.00 32 1013.1
20260508201904 21 201 4.8 4.8 0.00 0.00 0.00 31 1013.1
20260508201404 22 214 4.8 8.0 0.00 0.00 0.00 33 1013.1
20260508200904 22 116 6.4 11.3 0.00 0.00 0.00 31 1013.1
20260508200403 22 214 6.4 11.3 0.00 0.00 0.00 31 1013.4
20260508195905 22 175 1.6 8.0 0.00 0.00 0.00 31 1013.4
20260508195404 22 129 3.2 9.7 0.00 0.00 0.00 33 1013.4
20260508194904 22 237 1.6 8.0 0.00 0.00 0.00 29 1013.4
20260508193904 22 187 3.2 8.0 0.00 0.00 0.00 31 1013.8
20260508192904 22 213 3.2 4.8 0.00 0.00 0.00 35 1014.4